Location: Presov
(49.0000°N, 21.2500°E)
Time: 22:42:49
(UTC+02:00)

Transit 4A - All Passes

Search period start: 17 April 2021 00:00
Search period end: 27 April 2021 00:00
Orbit: 869 x 975 km, 66.8° (Epoch: 17 April)

Date Brightness Start Highest point End Pass type
(mag) Time Alt. Az. Time Alt. Az. Time Alt. Az.
17 Apr - 00:43:03 10° SSW 00:49:13 63° ESE 00:55:15 10° NE visible
17 Apr - 02:30:19 10° WSW 02:35:58 35° NW 02:41:29 10° NNE visible
17 Apr - 04:20:35 10° NW 04:24:12 16° NNW 04:27:47 10° NNE visible
17 Apr - 06:09:36 10° NNW 06:13:11 16° NNE 06:16:42 10° NE daylight
17 Apr - 07:55:56 10° NNW 08:01:24 35° NE 08:06:44 10° ESE daylight
17 Apr - 09:42:16 10° NW 09:48:03 58° WSW 09:53:44 10° SSE daylight
17 Apr - 23:08:56 10° SE 23:12:56 18° ESE 23:16:53 10° ENE visible
18 Apr - 00:52:13 10° SSW 00:58:29 86° SE 01:04:37 10° NE visible
18 Apr - 02:40:19 10° W 02:45:35 28° NW 02:50:44 10° NNE visible
18 Apr - 04:30:48 10° NW 04:34:05 15° N 04:37:19 10° NNE visible
18 Apr - 06:19:01 10° NNW 06:23:00 18° NNE 06:26:55 10° ENE daylight
18 Apr - 08:05:12 10° NNW 08:10:56 46° NE 08:16:31 10° ESE daylight
18 Apr - 09:51:45 10° NW 09:57:14 40° WSW 10:02:36 10° S daylight
18 Apr - 23:16:58 10° SSE 23:21:57 26° ESE 23:26:52 10° NE visible
19 Apr - 01:01:36 10° SW 01:07:50 71° NW 01:13:56 10° NNE visible
19 Apr - 02:50:26 10° W 02:55:15 23° NNW 03:00:00 10° NNE visible
19 Apr - 04:40:52 10° NNW 04:43:58 14° N 04:47:02 10° NNE visible
19 Apr - 06:28:22 10° NNW 06:32:47 21° NNE 06:37:07 10° ENE daylight
19 Apr - 08:14:28 10° NNW 08:20:22 62° NE 08:26:08 10° SE daylight
19 Apr - 10:01:24 10° NW 10:06:19 28° WSW 10:11:10 10° SSW daylight
19 Apr - 23:25:25 10° S 23:31:03 36° ESE 23:36:33 10° NE visible
20 Apr - 01:11:10 10° SW 01:17:15 53° NW 01:23:12 10° NNE visible
20 Apr - 03:00:39 10° WNW 03:05:00 20° NNW 03:09:16 10° NNE visible
20 Apr - 04:50:45 10° NNW 04:53:52 14° N 04:56:57 10° NE visible
20 Apr - 06:37:39 10° NNW 06:42:30 25° NNE 06:47:15 10° E daylight
20 Apr - 08:23:46 10° NW 08:29:44 83° NE 08:35:34 10° SE daylight
20 Apr - 10:11:18 10° WNW 10:15:21 19° WSW 10:19:21 10° SSW daylight
20 Apr - 23:34:11 10° S 23:40:12 51° ESE 23:46:05 10° NE visible
21 Apr - 01:20:55 10° WSW 01:26:44 41° NW 01:32:27 10° NNE visible
21 Apr - 03:10:55 10° WNW 03:14:48 17° NNW 03:18:37 10° NNE visible
21 Apr - 05:00:25 10° NNW 05:03:45 15° N 05:07:02 10° NE visible
21 Apr - 06:46:55 10° NNW 06:52:08 30° NE 06:57:16 10° E daylight
21 Apr - 08:33:08 10° NW 08:39:01 72° WSW 08:44:48 10° SSE daylight
21 Apr - 10:21:47 10° WNW 10:24:17 13° WSW 10:26:46 10° SW daylight
21 Apr - 22:01:08 10° SE 22:04:05 14° ESE 22:07:01 10° ENE visible
21 Apr - 23:43:14 10° SSW 23:49:26 71° ESE 23:55:30 10° NE visible
22 Apr - 01:30:48 10° W 01:36:18 32° NW 01:41:41 10° NNE visible
22 Apr - 03:21:11 10° NW 03:24:38 15° NNW 03:28:03 10° NNE visible
22 Apr - 05:09:55 10° NNW 05:13:36 16° NNE 05:17:14 10° NE daylight
22 Apr - 06:56:10 10° NNW 07:01:43 39° NE 07:07:08 10° ESE daylight
22 Apr - 08:42:34 10° NW 08:48:14 51° WSW 08:53:49 10° S daylight
22 Apr - 22:08:40 10° SSE 22:13:04 20° ESE 22:17:23 10° ENE visible
22 Apr - 23:52:29 10° SW 23:58:44 86° NW 00:04:51 10° NE visible
23 Apr - 01:40:51 10° W 01:45:56 26° NNW 01:50:56 10° NNE visible
23 Apr - 03:31:21 10° NW 03:34:31 14° N 03:37:39 10° NNE visible
23 Apr - 05:19:18 10° NNW 05:23:24 19° NNE 05:27:27 10° ENE daylight
23 Apr - 07:05:25 10° NNW 07:11:12 51° NE 07:16:52 10° ESE daylight
23 Apr - 08:52:05 10° NW 08:57:23 35° WSW 09:02:36 10° S daylight
23 Apr - 22:16:52 10° SSE 22:22:06 29° ESE 22:27:15 10° NE visible
24 Apr - 00:01:56 10° SW 00:08:06 64° NW 00:14:09 10° NNE visible
24 Apr - 01:51:00 10° WNW 01:55:38 22° NNW 02:00:11 10° NNE visible
24 Apr - 03:41:21 10° NNW 03:44:24 14° N 03:47:26 10° NNE visible
24 Apr - 05:28:36 10° NNW 05:33:10 22° NNE 05:37:38 10° ENE daylight
24 Apr - 07:14:42 10° NNW 07:20:37 69° NE 07:26:25 10° SE daylight
24 Apr - 09:01:48 10° NW 09:06:27 25° WSW 09:11:02 10° SSW daylight
24 Apr - 22:25:27 10° S 22:31:13 41° ESE 22:36:52 10° NE visible
25 Apr - 00:11:33 10° WSW 00:17:33 48° NW 00:23:24 10° NNE visible
25 Apr - 02:01:15 10° WNW 02:05:24 18° NNW 02:09:29 10° NNE visible
25 Apr - 03:51:09 10° NNW 03:54:18 14° N 03:57:25 10° NE visible
25 Apr - 05:37:53 10° NNW 05:42:51 27° NNE 05:47:44 10° E daylight
25 Apr - 07:24:01 10° NW 07:29:58 88° SW 07:35:47 10° SSE daylight
25 Apr - 09:11:51 10° WNW 09:15:27 17° WSW 09:19:01 10° SW daylight
25 Apr - 20:54:36 10° ESE 20:55:16 10° E 20:55:56 10° E visible
25 Apr - 22:34:19 10° SSW 22:40:25 57° ESE 22:46:21 10° NE visible
26 Apr - 00:21:21 10° WSW 00:27:03 37° NW 00:32:39 10° NNE visible
26 Apr - 02:11:31 10° NW 02:15:13 16° NNW 02:18:51 10° NNE visible
26 Apr - 04:00:45 10° NNW 04:04:10 15° NNE 04:07:33 10° NE visible
26 Apr - 05:47:08 10° NNW 05:52:28 33° NE 05:57:41 10° ESE daylight
26 Apr - 07:33:24 10° NW 07:39:14 64° WSW 07:44:57 10° SSE daylight
26 Apr - 09:22:57 10° W 09:24:22 11° W 09:25:47 10° WSW daylight
26 Apr - 21:00:39 10° SE 21:04:12 16° ESE 21:07:43 10° ENE visible
26 Apr - 22:43:26 10° SSW 22:49:39 79° ESE 22:55:45 10° NE visible
